Hauptseite
METAR-TAF:

METAR-TAF

Flughäfen :

Militärflugplatz Piacenza

Piacenza, Italien

Breite: 44-55N, Länge: 009-44E, Höhe: 134 m

Beobachtung

Neuester Wetterbericht von vor 52 Minuten, um 11:55 UTC
Wind 5 kt aus Nord/Nordost
Temperatur 16°C
Luftfeuchtigkeit 48%
Luftdruck 1021 hPa
Sichtweite 10 km oder mehr
keine Wolken unter 1500 m und keine Kumulonimbus oder Gewitterwolken

METAR: LIMS 221155Z 03005KT CAVOK 16/05 Q1021 RMK SKC VIS MIN 9999 WIND THR30 03004KT BLU

Zeit: 14:47 (12:47 UTC)


TAF: fehlend

Wetterbeobachtungen und Prognosen von mehr als 4000 Flughäfen (METAR und TAF Bericht).

Die verfügbaren Stationen werden durch gelbe und rote Markierungen auf der Karte dargestellt.

Führen Sie die Maus auf sie, um den Namen der Station zu sehen.

Darauf klicken, um die Beobachtung von Wetterbeobachtungen und Prognosen zu sehen.

Um die Karte zu ändern : klicken Sie auf den grünen Tasten mit einem schwarzen Kreuz Zum Vergrößern, auf den grünen Button mit einem Gedankenstrich zu verkleinern, oder auf die grünen Pfeile für benachbarte Karten.


METAR-TAF: